Date String (YYYY-MM-DD hh:mm:ss) UTC,Instrument flags,absolute air pressure of the measurement (hPa),sample flow rate (lpm),inlet stack bypass flow (lpm),air temperature of the measurement (°C),ambient temperature measured by the external sensor (°C),aerosol sample conditioner tube jacket temperature (°C),OPC LED temperature (°C),internal box temperature (°C),relative humidity of the measurement (%),span deviation,mass concentration of particles derived from Lorenz-Mie calculation of OPC scattering (μg/m³),mass concentration of particles derived from Lorenz-Mie calculation of OPC scattering (μg/m³),mass concentration of particles derived from Lorenz-Mie calculation of OPC scattering (μg/m³)
DateTimeUTC,F1_M11,P_M11,Q1_M11,Q2_M11,T1_M11,T2_M11,T3_M11,T4_M11,T5_M11,U1_M11,ZSPAN_M11,X0_M11,X2_M11,X1_M11
2023-12-12 01:00:00,SystemResetWarning,0832.7,5.01,000.00,025.2,024.0,000.0,033.6,026.5,16.7,0000.0,0007.88,0002.59,0001.60
2023-12-12 01:01:00,SystemResetWarning,0832.6,5.00,000.00,025.2,024.0,000.0,033.6,026.5,16.8,0000.0,0007.13,0002.61,0001.63
2023-12-12 01:02:00,SystemResetWarning,0832.6,4.99,000.00,025.2,024.0,000.0,033.6,026.4,17.0,0000.0,0007.60,0002.57,0001.64
2023-12-12 01:03:00,SystemResetWarning,0832.6,4.99,000.00,025.2,023.9,000.0,033.5,026.5,17.1,0000.0,0007.49,0002.57,0001.69
2023-12-12 01:04:00,SystemResetWarning,0832.6,5.01,000.00,025.1,023.9,000.0,033.5,026.5,17.1,0000.0,0007.71,0002.60,0001.71
2023-12-12 01:05:00,SystemResetWarning,0832.6,5.00,000.00,025.1,023.9,000.0,033.5,026.4,16.7,0000.0,0007.85,0002.66,0001.75
2023-12-12 01:06:00,SystemResetWarning,0832.7,5.01,000.00,025.1,023.9,000.0,033.5,026.4,16.9,0000.0,0007.77,0002.60,0001.77
2023-12-12 01:07:00,SystemResetWarning,0832.7,5.00,000.00,025.1,023.9,000.0,033.5,026.3,17.4,0000.0,0007.69,0002.60,0001.80
2023-12-12 01:08:00,SystemResetWarning,0832.7,4.99,000.00,025.1,023.8,000.0,033.5,026.4,17.6,0000.0,0008.13,0002.62,0001.82
2023-12-12 01:09:00,SystemResetWarning,0832.7,5.00,000.00,025.0,023.8,000.0,033.5,026.4,17.6,0000.0,0008.19,0002.65,0001.84
2023-12-12 01:10:00,SystemResetWarning,0832.8,5.00,000.00,025.0,023.8,000.0,033.5,026.4,17.6,0000.0,0008.05,0002.67,0001.85
2023-12-12 01:11:00,SystemResetWarning,0832.8,5.02,000.00,025.0,023.8,000.0,033.4,026.3,17.3,0000.0,0007.73,0002.69,0001.86
2023-12-12 01:12:00,SystemResetWarning,0832.9,4.99,000.00,025.0,023.8,000.0,033.4,026.3,17.4,0000.0,0007.66,0002.67,0001.84
2023-12-12 01:13:00,SystemResetWarning,0833.0,5.00,000.00,025.0,023.8,000.0,033.4,026.3,17.7,0000.0,0007.97,0002.66,0001.83
2023-12-12 01:14:00,SystemResetWarning,0833.0,4.99,000.00,025.0,023.8,000.0,033.4,026.3,17.5,0000.0,0007.60,0002.65,0001.82
2023-12-12 01:15:00,SystemResetWarning,0833.0,5.00,000.00,025.0,023.8,000.0,033.4,026.3,16.5,0000.0,0007.61,0002.65,0001.82
2023-12-12 01:16:00,SystemResetWarning,0833.4,5.01,000.00,025.0,023.8,000.0,033.4,026.3,16.0,0000.0,0007.63,0002.60,0001.79
2023-12-12 01:17:00,SystemResetWarning,0832.9,5.00,000.00,025.0,023.9,000.0,033.4,026.3,16.4,0000.0,0008.02,0002.66,0001.76
2023-12-12 01:18:00,SystemResetWarning,0832.8,5.00,000.00,025.0,023.9,000.0,033.4,026.3,16.8,0000.0,0008.18,0002.71,0001.75
2023-12-12 01:19:00,SystemResetWarning,0832.8,5.00,000.00,025.0,023.8,000.0,033.4,026.3,17.1,0000.0,0008.37,0002.71,0001.72
2023-12-12 01:20:00,SystemResetWarning,0832.8,5.00,000.00,025.0,023.8,000.0,033.4,026.3,17.5,0000.0,0008.20,0002.67,0001.68
2023-12-12 01:21:00,SystemResetWarning,0832.7,5.00,000.00,025.0,023.8,000.0,033.3,026.3,17.8,0000.0,0008.16,0002.64,0001.65
2023-12-12 01:22:00,SystemResetWarning,0832.7,5.00,000.00,024.9,023.7,000.0,033.3,026.2,17.8,0000.0,0008.00,0002.56,0001.63
2023-12-12 01:23:00,SystemResetWarning,0832.8,5.00,000.00,024.9,023.7,000.0,033.3,026.2,17.9,0000.0,0008.32,0002.55,0001.63
2023-12-12 01:24:00,SystemResetWarning,0832.8,5.00,000.00,024.9,023.6,000.0,033.3,026.2,18.0,0000.0,0008.19,0002.55,0001.63
2023-12-12 01:25:00,SystemResetWarning,0832.8,5.00,000.00,024.9,023.6,000.0,033.3,026.1,18.1,0000.0,0008.31,0002.51,0001.63
2023-12-12 01:26:00,SystemResetWarning,0833.0,5.01,000.00,024.8,023.6,000.0,033.3,026.1,18.3,0000.0,0008.20,0002.56,0001.64
2023-12-12 01:27:00,SystemResetWarning,0833.4,5.00,000.00,024.8,023.6,000.0,033.3,026.1,18.5,0000.0,0008.00,0002.62,0001.68
2023-12-12 01:28:00,SystemResetWarning,0833.2,5.00,000.00,024.8,023.5,000.0,033.3,026.1,18.6,0000.0,0007.67,0002.62,0001.72
2023-12-12 01:29:00,SystemResetWarning,0833.3,5.01,000.00,024.8,023.5,000.0,033.3,026.0,18.6,0000.0,0007.55,0002.61,0001.76
2023-12-12 01:30:00,SystemResetWarning,0833.3,5.01,000.00,024.8,023.5,000.0,033.2,026.0,18.6,0000.0,0006.90,0002.65,0001.78
2023-12-12 01:31:00,SystemResetWarning,0833.4,5.00,000.00,024.7,023.5,000.0,033.2,026.0,18.6,0000.0,0006.87,0002.68,0001.81
2023-12-12 01:32:00,SystemResetWarning,0833.4,5.00,000.00,024.7,023.5,000.0,033.2,026.0,18.5,0000.0,0006.65,0002.64,0001.83
2023-12-12 01:33:00,SystemResetWarning,0833.3,5.01,000.00,024.7,023.4,000.0,033.2,025.9,18.6,0000.0,0006.67,0002.65,0001.84
2023-12-12 01:34:00,SystemResetWarning,0833.3,4.99,000.00,024.7,023.4,000.0,033.2,025.9,18.6,0000.0,0006.33,0002.70,0001.85
2023-12-12 01:35:00,SystemResetWarning,0833.0,5.00,000.00,024.7,023.4,000.0,033.1,025.9,18.4,0000.0,0005.57,0002.66,0001.85
2023-12-12 01:36:00,SystemResetWarning,0832.9,5.01,000.00,024.6,023.3,000.0,033.1,025.9,18.6,0000.0,0004.62,0002.67,0001.84
2023-12-12 01:37:00,SystemResetWarning,0832.9,5.01,000.00,024.6,023.3,000.0,033.1,025.9,18.5,0000.0,0004.53,0002.62,0001.83
2023-12-12 01:38:00,SystemResetWarning,0832.9,4.99,000.00,024.6,023.3,000.0,033.1,025.9,18.4,0000.0,0004.73,0002.55,0001.81
2023-12-12 01:39:00,SystemResetWarning,0832.9,4.99,000.00,024.6,023.3,000.0,033.1,025.9,18.3,0000.0,0005.40,0002.51,0001.80
2023-12-12 01:40:00,SystemResetWarning,0833.0,5.00,000.00,024.6,023.3,000.0,033.1,025.8,18.1,0000.0,0005.43,0002.52,0001.78
2023-12-12 01:41:00,SystemResetWarning,0833.0,5.00,000.00,024.5,023.3,000.0,033.0,025.7,17.9,0000.0,0005.53,0002.53,0001.77
2023-12-12 01:42:00,SystemResetWarning,0833.0,5.01,000.00,024.5,023.3,000.0,033.0,025.8,17.9,0000.0,0005.50,0002.49,0001.76
2023-12-12 01:43:00,SystemResetWarning,0832.9,5.00,000.00,024.5,023.3,000.0,033.0,025.7,17.9,0000.0,0005.68,0002.54,0001.77
2023-12-12 01:44:00,SystemResetWarning,0833.0,4.98,000.00,024.5,023.3,000.0,033.0,025.8,17.8,0000.0,0007.06,0002.63,0001.76
2023-12-12 01:45:00,SystemResetWarning,0833.0,5.00,000.00,024.5,023.3,000.0,033.0,025.7,18.0,0000.0,0007.45,0002.62,0001.75
2023-12-12 01:46:00,SystemResetWarning,0833.0,5.01,000.00,024.5,023.3,000.0,033.0,025.7,18.2,0000.0,0008.06,0002.63,0001.75
2023-12-12 01:47:00,SystemResetWarning,0832.9,5.00,000.00,024.5,023.2,000.0,032.9,025.7,18.0,0000.0,0008.35,0002.64,0001.77
2023-12-12 01:48:00,SystemResetWarning,0832.9,4.98,000.00,024.5,023.2,000.0,032.9,025.7,18.0,0000.0,0009.04,0002.65,0001.76
2023-12-12 01:49:00,SystemResetWarning,0833.1,5.01,000.00,024.4,023.2,000.0,032.9,025.7,18.2,0000.0,0008.86,0002.64,0001.76
2023-12-12 01:50:00,SystemResetWarning,0833.0,5.01,000.00,024.4,023.3,000.0,032.9,025.7,18.1,0000.0,0008.47,0002.64,0001.76
2023-12-12 01:51:00,SystemResetWarning,0833.1,4.98,000.00,024.4,023.2,000.0,032.9,025.7,18.0,0000.0,0008.99,0002.65,0001.76
2023-12-12 01:52:00,SystemResetWarning,0833.5,5.00,000.00,024.4,023.2,000.0,032.9,025.7,17.9,0000.0,0010.13,0002.66,0001.77
2023-12-12 01:53:00,SystemResetWarning,0833.1,5.01,000.00,024.4,023.2,000.0,032.9,025.7,18.2,0000.0,0010.21,0002.66,0001.77
2023-12-12 01:54:00,SystemResetWarning,0833.2,5.00,000.00,024.4,023.2,000.0,032.9,025.6,18.3,0000.0,0010.18,0002.63,0001.77
2023-12-12 01:55:00,SystemResetWarning,0833.2,5.00,000.00,024.4,023.2,000.0,032.9,025.6,18.4,0000.0,0009.65,0002.59,0001.78
2023-12-12 01:56:00,SystemResetWarning,0833.2,5.00,000.00,024.4,023.2,000.0,032.8,025.7,18.4,0000.0,0009.62,0002.53,0001.77
2023-12-12 01:57:00,SystemResetWarning,0833.2,4.99,000.00,024.4,023.2,000.0,032.8,025.6,18.5,0000.0,0009.06,0002.56,0001.78
2023-12-12 01:58:00,SystemResetWarning,0833.2,5.00,000.00,024.4,023.2,000.0,032.8,025.6,18.3,0000.0,0008.72,0002.55,0001.77
2023-12-12 01:59:00,SystemResetWarning,0833.2,5.00,000.00,024.4,023.2,000.0,032.8,025.6,18.2,0000.0,0008.08,0002.57,0001.76
